FW8756 Weather Reports


Display with metric or nautical units.
time (UTC)temp
F
wind
direction
speed
MPH
gust
MPH
rain 1hr
in
rain 24hr
in
rain mn
in
humidity
%
barometer
mb
20260504081524 63 155 0.0 0.0 0.00 0.00 0.00 75 1015.3
20260504081019 63 151 0.0 0.0 0.00 0.00 0.00 75 1015.7
20260504080516 63 187 1.0 1.0 0.00 0.00 0.00 75 1015.5
20260504050328 65 154 0.0 0.0 0.00 0.00 0.00 70 1017.1
20260504045825 65 122 0.0 0.0 0.00 0.00 0.00 70 1017.2
20260504045320 65 187 0.0 0.0 0.00 0.00 0.00 69 1017.4
20260504044817 65 173 0.0 0.0 0.00 0.00 0.00 69 1017.4
20260504044315 65 159 0.0 0.0 0.00 0.00 0.00 68 1017.2
20260504043812 65 156 0.0 0.0 0.00 0.00 0.00 68 1017.2
20260504043309 65 146 0.0 0.0 0.00 0.00 0.00 68 1017.0
20260504042806 65 153 0.0 0.0 0.00 0.00 0.00 68 1017.2
20260504042304 66 155 0.0 0.0 0.00 0.00 0.00 68 1017.2
20260504041759 66 155 0.0 0.0 0.00 0.00 0.00 66 1017.0
20260504041255 66 158 0.0 0.0 0.00 0.00 0.00 66 1017.1
20260504040751 67 157 0.0 0.0 0.00 0.00 0.00 66 1016.9
20260504040249 67 174 0.0 0.0 0.00 0.00 0.00 65 1017.2
20260504035744 67 100 0.0 1.0 0.00 0.00 0.00 64 1017.1
20260504035242 67 147 0.0 1.0 0.00 0.00 0.00 64 1017.1
20260504034740 68 157 0.0 0.0 0.00 0.00 0.00 64 1017.3
20260504034237 68 150 1.0 2.0 0.00 0.00 0.00 63 1017.1
20260504033734 68 93 0.0 0.0 0.00 0.00 0.00 64 1017.2
20260504033231 68 141 0.0 0.0 0.00 0.00 0.00 64 1017.3
20260504032728 68 183 0.0 0.0 0.00 0.00 0.00 64 1017.2
20260504032225 68 162 0.0 0.0 0.00 0.00 0.00 64 1017.3
20260504031722 68 167 0.0 0.0 0.00 0.00 0.00 63 1017.2
20260504031220 68 135 0.0 0.0 0.00 0.00 0.00 63 1017.1
20260504030715 69 133 0.0 0.0 0.00 0.00 0.00 62 1016.9
20260504030213 68 159 0.0 0.0 0.00 0.00 0.00 62 1016.9
20260504025709 68 154 0.0 0.0 0.00 0.00 0.00 63 1016.9
20260504025206 68 115 0.0 0.0 0.00 0.00 0.00 63 1016.8
20260504024703 68 164 0.0 0.0 0.00 0.00 0.00 64 1016.8
20260504024159 68 154 0.0 0.0 0.00 0.00 0.00 63 1016.6
20260504023656 69 149 0.0 0.0 0.00 0.00 0.00 62 1016.8
20260504023152 69 156 0.0 0.0 0.00 0.00 0.00 62 1016.8
20260504022648 69 154 0.0 0.0 0.00 0.00 0.00 61 1016.8
20260504022144 69 152 0.0 0.0 0.00 0.00 0.00 61 1016.8
20260504021643 69 133 0.0 0.0 0.00 0.00 0.00 61 1016.5
20260504021139 70 151 0.0 0.0 0.00 0.00 0.00 60 1016.5
20260504020636 70 150 0.0 0.0 0.00 0.00 0.00 59 1016.6
20260504020132 70 155 0.0 0.0 0.00 0.00 0.00 59 1016.5
20260504015629 71 147 0.0 0.0 0.00 0.00 0.00 58 1016.3
20260504015125 71 161 0.0 0.0 0.00 0.00 0.00 58 1016.4
20260504014621 71 153 0.0 0.0 0.00 0.00 0.00 58 1016.3
20260504014118 71 150 0.0 0.0 0.00 0.00 0.00 58 1016.2
20260504013616 71 145 0.0 0.0 0.00 0.00 0.00 57 1016.3
20260504013113 72 147 0.0 0.0 0.00 0.00 0.00 55 1016.1
20260504012610 72 152 0.0 0.0 0.00 0.00 0.00 54 1016.2
20260504012108 72 154 1.0 1.0 0.00 0.00 0.00 55 1016.2
20260504011604 72 162 0.0 0.0 0.00 0.00 0.00 54 1016.1
20260504011101 72 171 0.0 0.0 0.00 0.00 0.00 52 1016.0
20260504010556 73 155 0.0 0.0 0.00 0.00 0.00 53 1016.1
20260504010053 73 153 0.0 0.0 0.00 0.00 0.00 53 1016.0
20260504005549 73 153 0.0 0.0 0.00 0.00 0.00 52 1015.9
20260504005047 74 158 0.0 0.0 0.00 0.00 0.00 51 1016.2
20260504004544 74 162 0.0 0.0 0.00 0.00 0.00 50 1016.0
20260504004041 74 155 0.0 0.0 0.00 0.00 0.00 49 1016.0
20260504003537 75 150 0.0 0.0 0.00 0.00 0.00 49 1016.1
20260504003034 75 164 0.0 1.0 0.00 0.00 0.00 47 1016.4
20260504002531 75 130 0.0 1.0 0.00 0.00 0.00 47 1016.2
20260504002029 76 156 0.0 0.0 0.00 0.00 0.00 46 1016.2
20260504001526 76 160 1.0 2.0 0.00 0.00 0.00 47 1016.2
20260504001022 76 139 0.0 0.0 0.00 0.00 0.00 47 1016.3
20260504000520 76 163 0.0 0.0 0.00 0.00 0.00 48 1016.5
20260504000017 77 155 0.0 0.0 0.00 0.00 0.00 46 1016.5
20260503235515 77 157 0.0 0.0 0.00 0.00 0.00 46 1016.4
20260503235012 76 158 0.0 0.0 0.00 0.00 0.00 47 1016.2
20260503234509 77 209 0.0 0.0 0.00 0.00 0.00 47 1016.5
20260503234008 77 156 0.0 0.0 0.00 0.00 0.00 47 1016.4
20260503233503 78 163 0.0 0.0 0.00 0.00 0.00 46 1016.3
20260503232959 78 159 0.0 0.0 0.00 0.00 0.00 46 1016.4
20260503232457 78 137 0.0 0.0 0.00 0.00 0.00 45 1016.5
20260503231955 78 120 0.0 0.0 0.00 0.00 0.00 46 1016.5
20260503231452 78 169 1.0 3.0 0.00 0.00 0.00 44 1016.3
20260503230948 78 125 0.0 0.0 0.00 0.00 0.00 44 1016.5
20260503230445 77 146 1.0 1.0 0.00 0.00 0.00 43 1016.6
20260503225943 77 193 0.0 0.0 0.00 0.00 0.00 44 1016.4
20260503225439 77 159 0.0 0.0 0.00 0.00 0.00 48 1016.8
20260503224934 77 163 0.0 0.0 0.00 0.00 0.00 51 1016.7
20260503224432 77 155 0.0 0.0 0.00 0.00 0.00 48 1016.7
20260503223930 77 153 0.0 0.0 0.00 0.00 0.00 49 1016.8
20260503223427 78 125 0.0 0.0 0.00 0.00 0.00 45 1016.8
20260503222922 78 157 0.0 0.0 0.00 0.00 0.00 43 1017.0
20260503222421 79 166 0.0 0.0 0.00 0.00 0.00 42 1016.9
20260503221919 80 137 2.0 2.0 0.00 0.00 0.00 41 1017.1
20260503221417 78 160 0.0 0.0 0.00 0.00 0.00 43 1017.1
20260503220913 79 148 0.0 0.0 0.00 0.00 0.00 44 1017.3
20260503220410 80 182 0.0 0.0 0.00 0.00 0.00 45 1017.1
20260503215907 81 165 0.0 1.0 0.00 0.00 0.00 41 1017.2
20260503215404 81 201 2.0 3.0 0.00 0.00 0.00 39 1016.9
20260503214902 83 148 0.0 0.0 0.00 0.00 0.00 41 1017.1
20260503214359 82 211 0.0 1.0 0.00 0.00 0.00 38 1017.3
20260503213856 81 181 1.0 3.0 0.00 0.00 0.00 40 1017.3
20260503213354 82 221 2.0 2.0 0.00 0.00 0.00 38 1017.2
20260503212850 83 252 0.0 1.0 0.00 0.00 0.00 39 1017.8
20260503212348 82 199 1.0 2.0 0.00 0.00 0.00 39 1017.8
20260503211845 82 186 1.0 1.0 0.00 0.00 0.00 38 1017.8
20260503211342 84 160 0.0 0.0 0.00 0.00 0.00 39 1017.9
20260503210837 83 162 0.0 0.0 0.00 0.00 0.00 38 1017.8
20260503210335 82 160 0.0 0.0 0.00 0.00 0.00 39 1017.8
20260503205829 80 168 1.0 2.0 0.00 0.00 0.00 42 1017.9
20260503205326 82 145 0.0 0.0 0.00 0.00 0.00 40 1018.0
20260503204823 82 148 0.0 0.0 0.00 0.00 0.00 39 1018.3
20260503204321 83 192 0.0 0.0 0.00 0.00 0.00 40 1018.2
20260503203818 81 164 0.0 0.0 0.00 0.00 0.00 40 1018.4
20260503203315 80 189 0.0 0.0 0.00 0.00 0.00 42 1018.3
20260503202812 81 201 1.0 2.0 0.00 0.00 0.00 39 1018.6
20260503202310 80 193 0.0 1.0 0.00 0.00 0.00 41 1018.7
20260503201808 81 161 0.0 0.0 0.00 0.00 0.00 41 1018.7
20260503201304 84 225 1.0 1.0 0.00 0.00 0.00 36 1018.8
20260503200802 81 165 0.0 0.0 0.00 0.00 0.00 39 1019.0
20260503200257 82 162 0.0 0.0 0.00 0.00 0.00 40 1019.0
20260503195755 81 182 1.0 2.0 0.00 0.00 0.00 39 1019.2
20260503195251 83 185 0.0 0.0 0.00 0.00 0.00 41 1018.9
20260503194749 81 148 0.0 0.0 0.00 0.00 0.00 42 1019.2
20260503194245 81 222 0.0 0.0 0.00 0.00 0.00 43 1019.4
20260503193741 81 195 1.0 2.0 0.00 0.00 0.00 41 1019.4
20260503193237 82 247 5.0 6.0 0.00 0.00 0.00 38 1019.4
20260503192733 82 254 5.0 7.0 0.00 0.00 0.00 39 1019.4
20260503192228 84 174 2.0 2.0 0.00 0.00 0.00 40 1019.7
20260503191725 82 253 3.0 3.0 0.00 0.00 0.00 41 1019.8
20260503191222 79 151 0.0 0.0 0.00 0.00 0.00 42 1019.9
20260503190719 82 149 0.0 0.0 0.00 0.00 0.00 41 1020.2
20260503190216 80 299 7.0 8.0 0.00 0.00 0.00 38 1019.9
20260503185713 81 184 0.0 0.0 0.00 0.00 0.00 41 1020.1
20260503185208 80 253 2.0 3.0 0.00 0.00 0.00 41 1020.1
20260503184703 82 161 0.0 0.0 0.00 0.00 0.00 40 1020.0
20260503184200 80 118 0.0 0.0 0.00 0.00 0.00 42 1020.3
20260503183656 81 209 1.0 2.0 0.00 0.00 0.00 41 1020.3
20260503183154 81 132 4.0 6.0 0.00 0.00 0.00 43 1020.4
20260503182652 80 185 1.0 2.0 0.00 0.00 0.00 40 1020.5
20260503182150 81 169 0.0 0.0 0.00 0.00 0.00 41 1020.6
20260503181646 81 163 3.0 3.0 0.00 0.00 0.00 43 1020.5
20260503181143 80 169 0.0 0.0 0.00 0.00 0.00 44 1020.7
20260503180640 77 140 0.0 0.0 0.00 0.00 0.00 48 1021.1
20260503180138 79 122 3.0 3.0 0.00 0.00 0.00 44 1021.1
20260503175635 78 178 0.0 0.0 0.00 0.00 0.00 46 1021.0
20260503175132 77 165 0.0 0.0 0.00 0.00 0.00 46 1021.1
20260503174628 79 187 1.0 1.0 0.00 0.00 0.00 45 1021.2
20260503174126 79 144 0.0 0.0 0.00 0.00 0.00 46 1021.5
20260503173621 81 144 0.0 0.0 0.00 0.00 0.00 45 1021.4
20260503173117 80 158 0.0 1.0 0.00 0.00 0.00 45 1021.5
20260503172614 80 190 0.0 0.0 0.00 0.00 0.00 45 1021.6
20260503172112 81 180 2.0 3.0 0.00 0.00 0.00 44 1021.7
20260503171609 81 186 1.0 2.0 0.00 0.00 0.00 45 1021.8
20260503171106 80 220 0.0 0.0 0.00 0.00 0.00 45 1021.6
20260503170602 80 193 1.0 2.0 0.00 0.00 0.00 46 1021.9
20260503150954 73 186 0.0 0.0 0.00 0.00 0.00 60 1022.0
20260503150451 73 174 1.0 1.0 0.00 0.00 0.00 61 1021.8
20260503131344 61 153 0.0 0.0 0.00 0.00 0.00 93 1021.4
20260503130841 60 153 0.0 0.0 0.00 0.00 0.00 93 1021.2
20260503130338 59 142 0.0 0.0 0.00 0.00 0.00 93 1021.0
20260503110732 55 146 0.0 0.0 0.00 0.00 0.00 94 1020.3
20260503110230 55 140 0.0 0.0 0.00 0.00 0.00 94 1020.1
20260503100156 56 149 0.0 0.0 0.00 0.00 0.00 93 1019.9